Trapani, Italy

2:43 PM CET on December 16, 2017 (GMT +0100)
Birgi Mil

Weather History for LICT - January, 2013

Change the Weather History Date:

Friday, January 18, 2013

  Actual Average Record
Temperature  
Mean Temperature 48 °F -  
Max Temperature 52 °F 60 °F 66 °F (2014)
Min Temperature 45 °F 46 °F 35 °F (2012)
Degree Days  
Heating Degree Days 16    
Moisture  
Dew Point 38 °F    
Average Humidity 64    
Maximum Humidity 87    
Minimum Humidity 47    
Precipitation  
Precipitation 0.00 in 0.07 in - ()
Sea Level Pressure  
Sea Level Pressure 29.63 in    
Wind  
Wind Speed 20 mph ()    
Max Wind Speed 32 mph    
Max Gust Speed 44 mph    
Visibility 6.6 miles    
Events Rain    
Averages and records for this station are not official NWS values.
T = Trace of Precipitation, MM = Missing Value Source: Averaged Metar Reports

Daily Weather History Graph

Daily Weather History Graph

Search for Another Location

Airport or City:

Trip Planner

Search our weather history database for the weather conditions in past years. The results will help you decide how hot, cold, wet, or windy it might be!

Date:

Astronomy

Jan. 18, 2013 Rise Set
Actual Time 7:23 AM CET 5:17 PM CET
Civil Twilight 6:54 AM CET 5:46 PM CET
Nautical Twilight 6:22 AM CET 6:18 PM CET
Astronomical Twilight 5:51 AM CET 6:50 PM CET
Moon 11:00 AM CET (1/18) No Moon Set
Length of Visible Light 10h 51m
Length of Day
9h 54m
Waxing Crescent, 45% of the Moon is Illuminated
Jan 18
Waxing Crescent
Jan 19
First Quarter
Jan 27
Full
Feb 3
Last Quarter
Feb 10
New

Hourly Weather History & Observations

Time (CET) Temp. Windchill Dew Point Humidity Pressure Visibility Wind Dir Wind Speed Gust Speed Precip Events Conditions
12:55 AM 48.2 °F - 37.4 °F 66% 29.59 in 6.2 mi West 23.0 mph 34.5 mph N/A   Scattered Clouds
1:00 AM 49 °F - 37 °F 54% 29.59 in 7 mi West 23.0 mph - -   Partly Cloudy
1:29 AM 46.4 °F 37.4 °F 39.2 °F 76% 29.59 in 6.2 mi WNW 28.8 mph 40.3 mph N/A Rain Light Rain
1:55 AM 48.2 °F - 37.4 °F 66% 29.59 in 6.2 mi West 27.6 mph - N/A   Scattered Clouds
2:55 AM 44.6 °F 36.1 °F 41.0 °F 87% 29.59 in 6.2 mi West 21.9 mph 33.4 mph N/A   Scattered Clouds
3:55 AM 48.2 °F - 37.4 °F 66% 29.56 in 6.2 mi WNW 29.9 mph 41.4 mph N/A   Scattered Clouds
4:55 AM 48.2 °F - 37.4 °F 66% 29.56 in 6.2 mi WNW 31.1 mph 42.6 mph N/A   Scattered Clouds
5:55 AM 48.2 °F - 37.4 °F 66% 29.56 in 6.2 mi WNW 32.2 mph 43.7 mph N/A Rain Light Rain
6:55 AM 48.2 °F - 37.4 °F 66% 29.56 in 6.2 mi WNW 27.6 mph 39.1 mph N/A   Scattered Clouds
7:00 AM 48 °F - 38 °F 59% 29.57 in 7 mi WNW 27.6 mph - - Rain Light Rain
7:55 AM 48.2 °F - 35.6 °F 62% 29.86 in 6.2 mi WNW 23.0 mph - N/A   Scattered Clouds
8:55 AM 48.2 °F - 37.4 °F 66% 29.59 in 6.2 mi WNW 21.9 mph - N/A   Scattered Clouds
9:55 AM 50.0 °F - 35.6 °F 58% 29.62 in 6.2 mi WNW 21.9 mph - N/A   Scattered Clouds
10:55 AM 51.8 °F - 37.4 °F 58% 29.62 in 6.2 mi WNW 20.7 mph - N/A   Scattered Clouds
11:55 AM 51.8 °F - 37.4 °F 58% 29.62 in 6.2 mi WNW 20.7 mph - N/A   Scattered Clouds
12:55 PM 51.8 °F - 39.2 °F 62% 29.62 in 6.2 mi WNW 20.7 mph - N/A   Mostly Cloudy
1:00 PM 53 °F - 39 °F 47% 29.63 in 14 mi WNW 20.7 mph - -   Mostly Cloudy
1:55 PM 51.8 °F - 37.4 °F 58% 29.62 in 6.2 mi WNW 18.4 mph - N/A   Scattered Clouds
2:55 PM 51.8 °F - 39.2 °F 62% 29.62 in 6.2 mi WNW 21.9 mph - N/A   Scattered Clouds
3:55 PM 51.8 °F - 39.2 °F 62% 29.62 in 6.2 mi WNW 12.7 mph - N/A   Scattered Clouds
4:55 PM 50.0 °F - 37.4 °F 62% 29.62 in 6.2 mi WNW 17.3 mph - N/A   Scattered Clouds
5:55 PM 50.0 °F - 37.4 °F 62% 29.65 in 6.2 mi WNW 15.0 mph - N/A   Scattered Clouds
6:55 PM 50.0 °F - 37.4 °F 62% 29.68 in 6.2 mi NW 13.8 mph - N/A   Scattered Clouds
7:00 PM 51 °F - 37 °F 49% 29.69 in 9 mi NW 13.8 mph - -   Partly Cloudy
7:55 PM 51.8 °F - 39.2 °F 62% 29.68 in 6.2 mi NW 11.5 mph - N/A   Scattered Clouds
8:55 PM 50.0 °F - 37.4 °F 62% 29.68 in 6.2 mi WNW 11.5 mph - N/A   Mostly Cloudy
9:55 PM 50.0 °F - 41.0 °F 71% 29.71 in 6.2 mi West 8.1 mph - N/A   Mostly Cloudy
10:55 PM 48.2 °F - 39.2 °F 71% 29.71 in 6.2 mi West 4.6 mph - N/A   Scattered Clouds
11:55 PM 48.2 °F - 41.0 °F 76% 29.71 in 6.2 mi West 4.6 mph - N/A   Partly Cloudy